TimeEST,TemperatureF,Dew PointF,Humidity,Sea Level PressureIn,VisibilityMPH,Wind Direction,Wind SpeedMPH,Gust SpeedMPH,PrecipitationIn,Events,Conditions,WindDirDegrees,DateUTC
12:51 AM,24.1,12.9,62,30.02,6.0,Calm,Calm,-,0.00,Snow,Light Snow,0,2013-02-03 05:51:00
1:51 AM,23.0,17.1,78,30.01,3.0,Calm,Calm,-,0.00,Snow,Light Snow,0,2013-02-03 06:51:00
2:33 AM,21.2,17.6,86,30.00,3.0,Calm,Calm,-,0.00,Snow,Light Snow,0,2013-02-03 07:33:00
2:51 AM,21.9,18.0,85,30.00,4.0,Calm,Calm,-,0.00,Snow,Light Snow,0,2013-02-03 07:51:00
3:51 AM,21.9,18.0,85,29.98,10.0,Calm,Calm,-,0.00,,Overcast,0,2013-02-03 08:51:00
5:51 AM,19.9,16.0,85,29.98,8.0,Calm,Calm,-,N/A,,Scattered Clouds,0,2013-02-03 10:51:00
6:51 AM,17.1,14.0,88,29.97,10.0,North,3.5,-,N/A,,Clear,350,2013-02-03 11:51:00
7:51 AM,18.0,14.0,84,29.96,10.0,NNW,5.8,-,N/A,,Clear,340,2013-02-03 12:51:00
8:51 AM,21.0,12.9,71,29.97,10.0,Variable,4.6,-,N/A,,Mostly Cloudy,0,2013-02-03 13:51:00
9:51 AM,23.0,12.9,65,29.95,10.0,NNE,6.9,-,N/A,,Overcast,20,2013-02-03 14:51:00
10:51 AM,25.0,12.0,58,29.92,10.0,NE,6.9,-,N/A,,Overcast,40,2013-02-03 15:51:00
11:51 AM,26.1,12.9,58,29.88,10.0,North,9.2,-,0.00,,Overcast,360,2013-02-03 16:51:00
12:51 PM,27.0,14.0,58,29.83,10.0,North,8.1,-,0.00,,Overcast,350,2013-02-03 17:51:00
1:51 PM,26.1,12.9,58,29.81,10.0,NNE,9.2,-,N/A,,Overcast,30,2013-02-03 18:51:00
3:51 PM,26.1,12.9,58,29.79,10.0,North,9.2,-,0.00,,Overcast,350,2013-02-03 20:51:00
4:51 PM,26.1,12.0,55,29.77,10.0,North,5.8,-,N/A,,Overcast,350,2013-02-03 21:51:00
5:51 PM,26.1,10.9,53,29.76,10.0,North,5.8,-,N/A,,Overcast,350,2013-02-03 22:51:00
6:51 PM,26.1,10.9,53,29.76,10.0,North,3.5,-,N/A,,Overcast,360,2013-02-03 23:51:00
7:51 PM,26.1,10.9,53,29.76,10.0,NW,6.9,-,N/A,,Overcast,320,2013-02-04 00:51:00
8:51 PM,25.0,12.0,58,29.74,10.0,NNW,5.8,-,N/A,,Overcast,340,2013-02-04 01:51:00
9:51 PM,25.0,12.0,58,29.73,10.0,NW,4.6,-,N/A,,Overcast,310,2013-02-04 02:51:00
10:51 PM,24.1,12.9,62,29.70,10.0,NW,6.9,-,N/A,,Overcast,310,2013-02-04 03:51:00
11:51 PM,24.1,12.9,62,29.69,10.0,NW,4.6,-,N/A,,Overcast,310,2013-02-04 04:51:00